Regional Weather Roundup
Issued by NWS Boston, MA

Home | Current Version | Previous Version | Text Only | Print | Product List | Glossary On
Versions: 1 2 3 4 5 6 7 8 9 10 11 12 13 14 15 16 17 18 19 20 21 22 23 24 25 26 27 28 29 30 31 32 33 34 35 36 37 38 39 40 41 42 43 44 45 46 47 48
000
ASUS41 KBOX 281310
RWRBOX

REGIONAL WEATHER ROUNDUP
NATIONAL WEATHER SERVICE TAUNTON MA
800 AM EST SAT FEB 28 2015

NOTE:  "FAIR" INDICATES FEW OR NO CLOUDS BELOW 12,000 FEET WITH NO
SIGNIFICANT WEATHER AND/OR OBSTRUCTIONS TO VISIBILITY.  THE FOLLOWING
OBSERVATION LOCATIONS DO NOT REPORT PRESENT WEATHER...PROVINCETOWN...
SMITHFIELD...BLOCK ISLAND...KEENE...AND OXFORD.

MAZALL-281400-
EASTERN MASSACHUSETTS

CITY           SKY/WX    TMP DP  RH WIND       PRES   REMARKS
BOSTON         SUNNY     13  -1  54 NW12      30.73R WCI  -1
BEVERLY        SUNNY     10  -4  53 W8        30.71R WCI  -2
LAWRENCE       SUNNY      8  -1  66 SW3       30.73R
BEDFORD        SUNNY      9  -4  55 W6        30.72R WCI  -1
BLUE HILL        N/A      8  -3  61 NW13      30.65R WCI  -8
NORWOOD        SUNNY     -3  -6  87 CALM      30.73R
MARSHFIELD     FAIR      18   1  49 W3        30.73R
PLYMOUTH       SUNNY      9  -2  61 NW6       30.71R WCI  -1
TAUNTON        SUNNY      2   0  91 CALM      30.72R
NEW BEDFORD    SUNNY     13  -2  51 CALM      30.72R
$$

MAZALL-281400-
CAPE COD AND THE ISLANDS

CITY           SKY/WX    TMP DP  RH WIND       PRES   REMARKS
FALMOUTH       SUNNY     12  -2  52 NW7       30.71R WCI   2
HYANNIS        SUNNY     17   6  62 NW6       30.69R WCI   9
CHATHAM        SUNNY     22  11  62 NW5       30.70R WCI  16
PROVINCETOWN   SUNNY     21   7  53 NW13      30.70R WCI   9
NANTUCKET      SUNNY     21  13  71 NW13      30.70R WCI   9
MARTHAS VNYRD  SUNNY     15  -2  46 N14       30.71R WCI   0
$$

MAZALL-281400-
CENTRAL AND WESTERN MASSACHUSETTS

CITY           SKY/WX    TMP DP  RH WIND       PRES   REMARKS
WORCESTER      SUNNY      9  -3  58 NW13      30.63R WCI  -7
FITCHBURG      SUNNY     11  -3  53 NW9       30.71R WCI  -2
ORANGE         SUNNY     -7 -10  87 CALM      30.71R
SPRINGFIELD    SUNNY     -6 -11  79 S2        30.74R
WESTFIELD      SUNNY      3  -4  72 CALM      30.75R
NORTH ADAMS    SUNNY      0  -5  79 NW3       30.73R
PITTSFIELD     SUNNY      4  -3  73 NW7       30.65R WCI  -8
$$

RIZALL-281400-
RHODE ISLAND

CITY           SKY/WX    TMP DP  RH WIND       PRES   REMARKS
PROVIDENCE     SUNNY     13  -2  51 NW6       30.73R WCI   4
NEWPORT        SUNNY     13   0  56 N10       30.72R WCI   0
BLOCK ISLAND   SUNNY     16   3  57 N13       30.71R WCI   2
SMITHFIELD     SUNNY      9  -6  52 NW7       30.68R WCI  -3
WESTERLY       SUNNY     15  -1  49 N9        30.74R WCI   3
$$

CTZALL-281400-
CONNECTICUT

CITY           SKY/WX    TMP DP  RH WIND       PRES   REMARKS
BRADLEY INTL   SUNNY     10  -2  58 W5        30.76R WCI   2
HARTFORD       SUNNY     13  -1  54 VRB3      30.79R
BRIDGEPORT     SUNNY     13   1  59 VRB6      30.80R WCI   4
DANBURY        SUNNY      7  -3  64 W5        30.77R WCI  -2
GROTON         SUNNY     13   1  59 N13       30.75R WCI  -2
NEW HAVEN      SUNNY     14   1  56 NW7       30.77R WCI   4
CHESTER        FAIR      14   1  57 N13       30.73R WCI   0
MERIDEN        SUNNY     12  -1  56 NW7       30.78R WCI   1
WILLIMANTIC    SUNNY      1  -6  72 CALM      30.75R
OXFORD         SUNNY      3  -9  55 N6        30.71R WCI  -8
$$

MEZ002-015-021-024-NHZ003-005-008-011-012-014-VTZ005-008-281400-
NORTHERN NEW ENGLAND

CITY           SKY/WX    TMP DP  RH WIND       PRES   REMARKS
PORTLAND ME    SUNNY      3  -8  60 W5        30.70R WCI  -6
BANGOR ME      SUNNY      4  -9  55 SW5       30.65R WCI  -5
CONCORD NH     SUNNY      0  -7  72 CALM      30.70R
MANCHESTER NH  SUNNY      5  -3  69 CALM      30.70R
NASHUA NH      SUNNY      5  -5  63 CALM      30.72R
PORTSMOUTH NH  SUNNY      9  -6  50 W6        30.69R WCI  -1
JAFFREY NH     SUNNY     -6  -9  86 CALM      30.63R
KEENE NH       SUNNY     -8  -9  92 CALM      30.70S
BURLINGTON VT  SUNNY     -3 -10  72 CALM      30.73R
MT. WASHINGTON MOSUNNY    1 -18  39 NW20        N/A  WCI -20
$$

NYZ052-076-281400-
EASTERN NEW YORK

CITY           SKY/WX    TMP DP  RH WIND       PRES   REMARKS
ALBANY         SUNNY      7  -3  64 W7        30.79R WCI  -5
NEW YORK CITY  MOSUNNY   16  -1  47 NW6       30.81R WCI   7
$$

ANZALL-281400-
MARINE OBSERVATIONS

STATION/POSITION TIME  TEMP    WIND        PRES    VSBY  WAVE
                       AIR SEA DIR/SP/G                  HT/PER
                 (UTC) (F)     (DEG/KT/KT) (MB)    (MI)  (FT/S)
BOSTON BUOY      1250   18 36  320/ 16/ 19 1040.1R         3/10
BUZZARDS BAY     1300          340/ 11/ 13 1041.1R
NANTUCKET SOUND  1250   20 30  330/ 14/ 16 1039.9R         1/10
MASS BAY-STELLWA 1204   15 35  300/ 14/ 17   N/A    1 7/8  4/11
ISLE OF SHOALS   1300   15     310/ 16/ 18 1038.7R
S OF BLOCK IS    NOT AVBL
$$

......................KEY.........................
  SKY/WX - SKY CONDITION/PRESENT WEATHER
  TMP    - TEMPERATURE IN FAHRENHEIT
  DWPT   - DEWPOINT IN FAHRENHEIT
  RH     - RELATIVE HUMIDITY IN PERCENT
  WIND   - DIRECTION AND SPEED IN MPH
  PRES   - MEAN SEA LEVEL PRESSURE IN INCHES OF HG
  WCI    - WIND CHILL INDEX
  VSB    - VISIBILITY IN MILES
  HX     - HEAT INDEX
  TC     - TEMPERATURE IN CELSIUS
  VRB    - VARIABLE WIND DIRECTION
  N/A    - NOT AVAILABLE


USA.gov is the U.S. government's official web portal to all federal, state and local government web resources and services.